Sign in Sign up

Harbin

Pos Pair Lane Name Born Nation Time
1 12 I Ivanie Blondin 1990 Canada 1:17.99
2 8 I Yekaterina Shikhova 1985 Russia 1:18.18
3 12 O Arisa Go 1987 Japan 1:18.55
4 3 I Roxanne Dufter 1992 Germany 1:18.74
5 10 I Yekaterina Aydova 1991 Kazakhstan 1:18.85
6 10 O Elizaveta Kazelina 1996 Russia 1:18.88
7 9 I Kaylin Irvine 1990 Canada 1:19.01
8 7 O Beatrice Lamarche 1998 Canada 1:19.12
9 13 I Erina Kamiya 1992 Japan 1:19.13
10 8 O Seung-Hi Park 1992 South Korea 1:19.14
11 9 O Mia Manganello 1989 USA 1:19.34
12 11 I Bo van der Werff 1992 Netherlands 1:19.69
13 3 O Natalia Czerwonka 1988 Poland 1:19.80
14 6 I Xue Zhan 1991 China 1:20.06
15 11 O Isabell Ost 1988 Germany 1:20.17
16 6 O Noemi Fiset 1995 Canada 1:20.47
17 2 O Paige Schwartzburg 1990 USA 1:20.57
18 7 I Min-Sun Kim 1999 South Korea 1:20.58
19 4 I Francesca Bettrone 1991 Italy 1:20.62
20 13 O Nikola Zdráhalová 1996 Czech Republic 1:20.94
21 2 I Xiaoxuan Shi 1996 China 1:21.02
22 4 O Tatyana Mikhailova 1987 Belarus 1:21.38
23 1 I Nadezhda Aseeva 1990 Russia 1:21.57
24 5 O Ye-Won Nam 1995 South Korea 1:21.79
25 5 I Alexandra Ianculescu 1991 Romania 1:22.62

Info

What World Cup B-group
Discipline 1.000
Host Harbin
Nation China
Date Saturday 12.Nov 2016
Calendar 2016/2017
Air Temp 13.4 C
Ice Temp -6.5 C
Humidity 45 %